Greenville Downtown, SC

5:59 AM EDT on March 29, 2017 (GMT -0400)
Greenville Downtown

Weather History for KGMU - June, 2013

Change the Weather History Date:

Friday, June 7, 2013

  Actual Average Record
Temperature  
Mean Temperature 75 °F -  
Max Temperature 84 °F 81 °F 96 °F (2008)
Min Temperature 68 °F 62 °F 53 °F (1997)
Cooling Degree Days 10    
Growing Degree Days 25 (Base 50)    
Moisture  
Dew Point 67 °F    
Average Humidity 84    
Maximum Humidity 94    
Minimum Humidity 61    
Precipitation  
Precipitation 0.49 in - - ()
Sea Level Pressure  
Sea Level Pressure 29.73 in    
Wind  
Wind Speed 6 mph (WNW)    
Max Wind Speed 22 mph    
Max Gust Speed 28 mph    
Visibility 10 miles    
Events Rain , Thunderstorm    
Averages and records for this station are not official NWS values.
T = Trace of Precipitation, MM = Missing Value Source: NWS Daily Summary

Daily Weather History Graph

Daily Weather History Graph

Search for Another Location

Airport or City:

Trip Planner

Search our weather history database for the weather conditions in past years. The results will help you decide how hot, cold, wet, or windy it might be!

Date:

Astronomy

Jun. 07, 2013 Rise Set
Actual Time 6:15 AM EDT 8:41 PM EDT
Civil Twilight 5:46 AM EDT 9:10 PM EDT
Nautical Twilight 5:10 AM EDT 9:46 PM EDT
Astronomical Twilight 4:30 AM EDT 10:26 PM EDT
Moon 5:34 AM EDT (6/7) 7:56 PM EDT (6/7)
Length of Visible Light 15h 24m
Length of Day
14h 25m
Waning Crescent, 1% of the Moon is Illuminated
Jun 7
Waning Crescent
Jun 8
New
Jun 16
First Quarter
Jun 23
Full
Jun 30
Last Quarter

Hourly Weather History & Observations

Time (EDT) Temp. Heat Index Dew Point Humidity Pressure Visibility Wind Dir Wind Speed Gust Speed Precip Events Conditions
12:53 AM 69.1 °F - 66.0 °F 90% 29.79 in 9.0 mi Calm Calm - 0.04 in Rain Light Rain
1:29 AM 68.0 °F - 66.2 °F 94% 29.80 in 9.0 mi NE 3.5 mph - 0.04 in Rain Light Rain
1:53 AM 68.0 °F - 66.0 °F 93% 29.76 in 10.0 mi North 5.8 mph - 0.05 in Rain Light Rain
2:30 AM 68.0 °F - 66.2 °F 94% 29.76 in 8.0 mi North 5.8 mph - 0.06 in Rain Rain
2:37 AM 68.0 °F - 66.2 °F 94% 29.76 in 8.0 mi North 5.8 mph - 0.07 in Rain Rain
2:53 AM 68.0 °F - 66.0 °F 93% 29.73 in 9.0 mi North 6.9 mph - 0.09 in Rain Rain
3:42 AM 68.0 °F - 66.2 °F 94% 29.73 in 10.0 mi North 8.1 mph - 0.03 in Rain Light Rain
3:53 AM 68.0 °F - 66.0 °F 93% 29.70 in 10.0 mi North 6.9 mph - 0.03 in   Overcast
4:44 AM 68.0 °F - 66.2 °F 94% 29.71 in 10.0 mi North 5.8 mph - 0.00 in Rain Light Rain
4:53 AM 68.0 °F - 66.0 °F 93% 29.68 in 10.0 mi North 8.1 mph - 0.00 in   Overcast
5:28 AM 68.0 °F - 66.2 °F 94% 29.70 in 10.0 mi North 8.1 mph - 0.00 in Rain Light Rain
5:53 AM 68.0 °F - 66.0 °F 93% 29.68 in 10.0 mi North 6.9 mph - 0.02 in Rain Light Rain
6:35 AM 68.0 °F - 66.2 °F 94% 29.71 in 10.0 mi North 4.6 mph - 0.03 in Rain Light Rain
6:48 AM 68.0 °F - 66.2 °F 94% 29.72 in 9.0 mi North 6.9 mph - 0.04 in Rain Light Rain
6:53 AM 68.0 °F - 66.0 °F 93% 29.69 in 10.0 mi North 5.8 mph - 0.04 in Rain Light Rain
7:53 AM 68.0 °F - 66.0 °F 93% 29.68 in 10.0 mi North 6.9 mph - 0.06 in Rain Light Rain
8:53 AM 69.1 °F - 66.0 °F 90% 29.70 in 10.0 mi NNE 3.5 mph - 0.05 in Rain Light Rain
9:50 AM 69.8 °F - 66.2 °F 88% 29.73 in 10.0 mi West 3.5 mph - 0.01 in Rain Light Rain
9:53 AM 69.1 °F - 66.0 °F 90% 29.71 in 10.0 mi West 4.6 mph - 0.01 in Rain Light Rain
10:53 AM 71.1 °F - 66.9 °F 87% 29.71 in 10.0 mi West 8.1 mph - 0.01 in   Mostly Cloudy
11:49 AM 71.6 °F - 68.0 °F 88% 29.74 in 10.0 mi WSW 8.1 mph - N/A   Mostly Cloudy
11:53 AM 72.0 °F - 68.0 °F 87% 29.72 in 10.0 mi WSW 8.1 mph - N/A   Mostly Cloudy
12:28 PM 75.2 °F - 69.8 °F 83% 29.76 in 10.0 mi WSW 11.5 mph - N/A   Mostly Cloudy
12:42 PM 75.2 °F - 68.0 °F 78% 29.76 in 10.0 mi WSW 9.2 mph - N/A   Mostly Cloudy
12:53 PM 75.9 °F - 69.1 °F 79% 29.73 in 10.0 mi WSW 10.4 mph - N/A   Mostly Cloudy
1:29 PM 77.0 °F - 68.0 °F 74% 29.75 in 10.0 mi WSW 8.1 mph - N/A   Scattered Clouds
1:38 PM 78.8 °F - 69.8 °F 74% 29.75 in 10.0 mi WSW 8.1 mph - N/A   Mostly Cloudy
1:45 PM 78.8 °F - 69.8 °F 74% 29.74 in 10.0 mi SW 10.4 mph - N/A   Partly Cloudy
1:53 PM 78.1 °F - 69.1 °F 74% 29.72 in 10.0 mi WSW 9.2 mph - N/A   Scattered Clouds
2:35 PM 80.6 °F 83.9 °F 69.8 °F 70% 29.74 in 10.0 mi SW 9.2 mph - N/A   Mostly Cloudy
2:44 PM 80.6 °F 83.9 °F 69.8 °F 70% 29.74 in 10.0 mi SSW 8.1 mph - N/A   Scattered Clouds
2:53 PM 81.0 °F 84.1 °F 69.1 °F 67% 29.71 in 10.0 mi SSW 9.2 mph - N/A   Mostly Cloudy
3:03 PM 82.4 °F 86.3 °F 69.8 °F 66% 29.73 in 10.0 mi SW 10.4 mph 17.3 mph N/A   Partly Cloudy
3:53 PM 82.0 °F 84.9 °F 68.0 °F 62% 29.69 in 10.0 mi South 10.4 mph - N/A   Scattered Clouds
4:53 PM 80.1 °F 82.9 °F 69.1 °F 69% 29.70 in 10.0 mi Variable 3.5 mph - 0.00 in   Overcast
5:00 PM 80.6 °F 82.7 °F 66.2 °F 61% 29.74 in 10.0 mi WSW 21.9 mph 27.6 mph N/A Thunderstorm Thunderstorm
5:49 PM 75.2 °F - 68.0 °F 78% 29.76 in 10.0 mi Variable 4.6 mph - 0.03 in Rain Light Rain
5:53 PM 75.9 °F - 66.9 °F 74% 29.73 in 10.0 mi NNW 5.8 mph - 0.03 in Rain Light Rain
6:53 PM 75.9 °F - 66.9 °F 74% 29.73 in 10.0 mi Calm Calm - N/A   Clear
7:53 PM 75.0 °F - 66.9 °F 76% 29.76 in 10.0 mi South 4.6 mph - N/A   Partly Cloudy
8:53 PM 71.1 °F - 68.0 °F 90% 29.78 in 10.0 mi WNW 3.5 mph - 0.05 in Rain Light Rain
9:53 PM 71.1 °F - 66.9 °F 87% 29.81 in 10.0 mi Calm Calm - 0.00 in Rain Light Rain
10:53 PM 71.1 °F - 68.0 °F 90% - 10.0 mi SE 3.5 mph - 0.01 in   Overcast
11:53 PM 71.1 °F - 68.0 °F 90% - 10.0 mi Calm Calm - N/A   Mostly Cloudy